When you browse on this site, cookies collect data to enhance your experience and personalize the content and advertising you see.
Visit our Privacy Policy to learn more. By continuing to use the site, you agree to this use of cookies and data.

Previsão horária em Omagh

Hoje, 8 Julho, Quarta-feira

Tempo Temperatura Precipitação Vento Pressão Humidade
00:00 +10°C° 0 mm 1 m/s 754 mmHg 97%
01:00 +10°C° 0 mm 1 m/s 754 mmHg 97%
02:00 +9°C° 0 mm 1 m/s 754 mmHg 97%
03:00 +9°C° 0 mm 1 m/s 754 mmHg 97%
04:00 +9°C° 0 mm 1 m/s 754 mmHg 96%
05:00 +9°C° 0 mm 1 m/s 754 mmHg 95%
06:00 +10°C° 0 mm 1 m/s 754 mmHg 94%
07:00 +11°C° 0 mm 1 m/s 754 mmHg 88%
08:00 +13°C° 0 mm 1 m/s 754 mmHg 81%
09:00 +14°C° 0 mm 1 m/s 754 mmHg 75%
10:00 +15°C° 0 mm 1 m/s 754 mmHg 72%
11:00 +16°C° 0 mm 2 m/s 754 mmHg 69%
12:00 +17°C° 0 mm 2 m/s 754 mmHg 66%
13:00 +17°C° 0.2 mm 2 m/s 754 mmHg 72%
14:00 +16°C° 0.2 mm 2 m/s 754 mmHg 78%
15:00 +16°C° 0.2 mm 2 m/s 754 mmHg 84%
16:00 +15°C° 1.1 mm 1 m/s 753 mmHg 88%
17:00 +14°C° 1.1 mm 1 m/s 753 mmHg 92%
18:00 +13°C° 1.1 mm 1 m/s 752 mmHg 97%
19:00 +13°C° 1.2 mm 1 m/s 752 mmHg 97%
20:00 +12°C° 1.2 mm 1 m/s 752 mmHg 97%
21:00 +12°C° 1.2 mm 1 m/s 752 mmHg 98%
22:00 +11°C° 0.2 mm 1 m/s 752 mmHg 98%
23:00 +11°C° 0.2 mm 1 m/s 752 mmHg 98%

Amanhã, 9 Julho, Quinta-feira

Tempo Temperatura Precipitação Vento Pressão Humidade
00:00 +11°C° 0.2 mm 1 m/s 752 mmHg 97%
01:00 +10°C° 0 mm 1 m/s 752 mmHg 97%
02:00 +10°C° 0 mm 1 m/s 752 mmHg 97%
03:00 +9°C° 0 mm 1 m/s 752 mmHg 97%
04:00 +9°C° 0 mm 1 m/s 753 mmHg 97%
05:00 +10°C° 0 mm 1 m/s 753 mmHg 96%
06:00 +10°C° 0 mm 1 m/s 753 mmHg 96%
07:00 +10°C° 0 mm 2 m/s 754 mmHg 91%
08:00 +13°C° 0 mm 2 m/s 754 mmHg 86%
09:00 +14°C° 0 mm 2 m/s 754 mmHg 81%
10:00 +14°C° 0 mm 3 m/s 755 mmHg 75%
11:00 +16°C° 0 mm 3 m/s 755 mmHg 70%
12:00 +17°C° 0 mm 3 m/s 755 mmHg 64%
13:00 +17°C° 0 mm 4 m/s 755 mmHg 64%
14:00 +17°C° 0 mm 4 m/s 755 mmHg 63%
15:00 +17°C° 0 mm 4 m/s 755 mmHg 62%
16:00 +15°C° 0 mm 4 m/s 755 mmHg 64%
17:00 +15°C° 0 mm 4 m/s 755 mmHg 65%
18:00 +14°C° 0 mm 4 m/s 755 mmHg 67%
19:00 +12°C° 0 mm 3 m/s 755 mmHg 73%
20:00 +11°C° 0 mm 3 m/s 756 mmHg 79%
21:00 +9°C° 0 mm 2 m/s 756 mmHg 84%
22:00 +9°C° 0 mm 2 m/s 756 mmHg 87%
23:00 +8°C° 0 mm 2 m/s 756 mmHg 90%

Depois de amanhã, 10 Julho, Sexta-feira

Tempo Temperatura Precipitação Vento Pressão Humidade
00:00 +7°C° 0 mm 2 m/s 756 mmHg 93%
01:00 +7°C° 0 mm 2 m/s 757 mmHg 94%
02:00 +7°C° 0 mm 2 m/s 757 mmHg 94%
03:00 +7°C° 0 mm 2 m/s 757 mmHg 94%
04:00 +8°C° 0 mm 2 m/s 757 mmHg 94%
05:00 +8°C° 0 mm 2 m/s 757 mmHg 93%
06:00 +9°C° 0 mm 2 m/s 757 mmHg 92%
07:00 +10°C° 0.1 mm 3 m/s 757 mmHg 87%
08:00 +12°C° 0.1 mm 4 m/s 758 mmHg 83%
09:00 +13°C° 0.1 mm 5 m/s 758 mmHg 78%
10:00 +14°C° 0.2 mm 5 m/s 758 mmHg 75%
11:00 +15°C° 0.2 mm 5 m/s 759 mmHg 71%
12:00 +15°C° 0.2 mm 5 m/s 759 mmHg 68%
13:00 +15°C° 0.3 mm 5 m/s 759 mmHg 69%
14:00 +15°C° 0.3 mm 5 m/s 759 mmHg 69%
15:00 +15°C° 0.3 mm 5 m/s 759 mmHg 70%
16:00 +15°C° 0.1 mm 5 m/s 760 mmHg 71%
17:00 +14°C° 0.1 mm 5 m/s 760 mmHg 72%
18:00 +14°C° 0.1 mm 5 m/s 760 mmHg 73%
19:00 +13°C° 0 mm 4 m/s 760 mmHg 79%
20:00 +11°C° 0 mm 3 m/s 761 mmHg 86%
21:00 +10°C° 0 mm 2 m/s 761 mmHg 92%
22:00 +9°C° 0 mm 2 m/s 761 mmHg 94%
23:00 +9°C° 0 mm 2 m/s 761 mmHg 96%

11 Julho, Sábado

Tempo Temperatura Precipitação Vento Pressão Humidade
00:00 +8°C° 0 mm 2 m/s 762 mmHg 97%
01:00 +8°C° 0 mm 2 m/s 762 mmHg 98%
02:00 +7°C° 0 mm 2 m/s 762 mmHg 98%
03:00 +8°C° 0 mm 1 m/s 762 mmHg 98%
04:00 +8°C° 0 mm 2 m/s 762 mmHg 97%
05:00 +8°C° 0 mm 2 m/s 762 mmHg 96%
06:00 +9°C° 0 mm 2 m/s 762 mmHg 95%
07:00 +10°C° 0 mm 2 m/s 762 mmHg 88%
08:00 +13°C° 0 mm 2 m/s 763 mmHg 81%
09:00 +13°C° 0 mm 3 m/s 763 mmHg 75%
10:00 +14°C° 0.1 mm 3 m/s 763 mmHg 73%
11:00 +14°C° 0.1 mm 3 m/s 763 mmHg 71%
12:00 +14°C° 0.1 mm 3 m/s 763 mmHg 69%
13:00 +14°C° 0 mm 3 m/s 763 mmHg 68%
14:00 +16°C° 0 mm 3 m/s 763 mmHg 68%
15:00 +16°C° 0 mm 2 m/s 763 mmHg 67%
16:00 +16°C° 0 mm 2 m/s 763 mmHg 69%
17:00 +16°C° 0 mm 2 m/s 763 mmHg 71%
18:00 +16°C° 0 mm 2 m/s 763 mmHg 73%
19:00 +14°C° 0 mm 1 m/s 763 mmHg 78%
20:00 +13°C° 0 mm 1 m/s 763 mmHg 84%
21:00 +10°C° 0 mm 0 m/s 763 mmHg 89%
22:00 +10°C° 0 mm 0 m/s 763 mmHg 91%
23:00 +9°C° 0 mm 0 m/s 763 mmHg 92%

12 Julho, Domingo

Tempo Temperatura Precipitação Vento Pressão Humidade
00:00 +9°C° 0 mm 0 m/s 763 mmHg 93%
01:00 +9°C° 0 mm 1 m/s 762 mmHg 94%
02:00 +9°C° 0 mm 1 m/s 762 mmHg 95%
03:00 +9°C° 0 mm 1 m/s 762 mmHg 96%
04:00 +10°C° 0 mm 1 m/s 762 mmHg 94%
05:00 +10°C° 0 mm 1 m/s 762 mmHg 92%
06:00 +11°C° 0 mm 1 m/s 761 mmHg 90%
07:00 +11°C° 0.1 mm 1 m/s 761 mmHg 91%
08:00 +10°C° 0.1 mm 2 m/s 761 mmHg 92%
09:00 +10°C° 0.1 mm 2 m/s 761 mmHg 93%
10:00 +12°C° 0.1 mm 2 m/s 761 mmHg 94%
11:00 +12°C° 0.1 mm 2 m/s 761 mmHg 94%
12:00 +11°C° 0.1 mm 3 m/s 761 mmHg 94%
13:00 +11°C° 0.1 mm 3 m/s 761 mmHg 95%
14:00 +11°C° 0.1 mm 3 m/s 761 mmHg 95%
15:00 +11°C° 0.1 mm 3 m/s 761 mmHg 95%
16:00 +12°C° 0 mm 3 m/s 760 mmHg 94%
17:00 +13°C° 0 mm 3 m/s 760 mmHg 93%
18:00 +13°C° 0 mm 3 m/s 760 mmHg 91%
19:00 +13°C° 0 mm 3 m/s 760 mmHg 91%
20:00 +13°C° 0 mm 2 m/s 759 mmHg 91%
21:00 +13°C° 0 mm 2 m/s 759 mmHg 91%
22:00 +13°C° 0.1 mm 2 m/s 759 mmHg 92%
23:00 +13°C° 0.1 mm 2 m/s 759 mmHg 93%

13 Julho, Segunda-feira

Tempo Temperatura Precipitação Vento Pressão Humidade
00:00 +12°C° 0.1 mm 2 m/s 758 mmHg 94%
01:00 +12°C° 0.1 mm 2 m/s 758 mmHg 94%
02:00 +12°C° 0.1 mm 2 m/s 757 mmHg 94%
03:00 +12°C° 0.1 mm 2 m/s 757 mmHg 95%
04:00 +12°C° 0.1 mm 2 m/s 757 mmHg 95%
05:00 +13°C° 0.1 mm 2 m/s 756 mmHg 96%
06:00 +13°C° 0.1 mm 2 m/s 756 mmHg 96%
07:00 +13°C° 0.2 mm 2 m/s 756 mmHg 95%
08:00 +14°C° 0.2 mm 2 m/s 756 mmHg 95%
09:00 +14°C° 0.2 mm 2 m/s 756 mmHg 94%
10:00 +14°C° 0.2 mm 2 m/s 756 mmHg 93%
11:00 +15°C° 0.2 mm 2 m/s 755 mmHg 92%
12:00 +14°C° 0.2 mm 3 m/s 755 mmHg 92%
13:00 +15°C° 0.2 mm 2 m/s 755 mmHg 93%
14:00 +15°C° 0.2 mm 2 m/s 754 mmHg 94%
15:00 +15°C° 0.2 mm 1 m/s 754 mmHg 95%
16:00 +15°C° 0.2 mm 1 m/s 754 mmHg 95%
17:00 +15°C° 0.2 mm 1 m/s 754 mmHg 95%
18:00 +15°C° 0.2 mm 1 m/s 753 mmHg 95%
19:00 +15°C° 0.1 mm 1 m/s 753 mmHg 96%
20:00 +14°C° 0.1 mm 1 m/s 754 mmHg 97%
21:00 +13°C° 0.1 mm 1 m/s 754 mmHg 97%
22:00 +13°C° 0 mm 1 m/s 753 mmHg 98%
23:00 +13°C° 0 mm 1 m/s 753 mmHg 98%
Mostrar mais